Regional Weather Roundup
Issued by NWS

Home | Current Version | Previous Version | Text Only | Print | Product List | Glossary On
Versions: 1 2 3 4 5 6 7 8 9 10 11 12 13 14 15 16 17 18 19 20 21 22 23 24 25 26 27 28 29 30 31 32 33 34 35 36 37 38 39 40 41 42 43 44 45 46 47 48 49 50
000
ASUS43 KLMK 040010
RWRKY
KENTUCKY REGIONAL WEATHER ROUNDUP
NATIONAL WEATHER SERVICE LOUISVILLE KY
800 PM EDT THU SEP 03 2015

NOTE "FAIR" INDICATES FEW OR NO CLOUDS BELOW 12,000 FEET
WITH NO SIGNIFICANT WEATHER AND/OR OBSTRUCTIONS TO VISIBILITY.

KYZ001>023-026-027-061>063-070>075-040100-
WESTERN AND SOUTH CENTRAL KENTUCKY

CITY           SKY/WX    TMP DP  RH WIND       PRES   REMARKS
PADUCAH        CLEAR     82  69  64 CALM      29.92S
HENDERSON      CLEAR     84  72  65 CALM      29.92R
OWENSBORO      CLEAR     87  69  54 S3        29.94R HX  91
HOPKINSVILLE   PTCLDY    85  70  60 N3        29.94R
BOWLING GREEN  CLEAR     82  73  74 CALM      29.94S
GLASGOW        CLEAR     81  67  62 CALM      29.95S
$$

KYZ024-025-028>034-038-045-046-053-040100-
NORTH CENTRAL KENTUCKY

CITY           SKY/WX    TMP DP  RH WIND       PRES   REMARKS
LOUISVILLE/SDF PTCLDY    87  64  46 W7        29.93R
LOUISVILLE/LOU CLEAR     88  65  46 W5        29.94S HX  90
FORT KNOX      CLEAR     80  71  74 CALM      29.94R
$$

KYZ035>037-039>044-047>052-055>060-089>105-040100-
NORTHEAST KENTUCKY

CITY           SKY/WX    TMP DP  RH WIND       PRES   REMARKS
LEXINGTON      CLEAR     84  66  54 N5        29.97R
COVINGTON      PTCLDY    83  65  54 W5        29.95S
FRANKFORT      CLEAR     82  67  60 CALM      29.95R
$$

KYZ054-064>069-076>088-106>120-040100-
SOUTHEAST KENTUCKY

CITY           SKY/WX    TMP DP  RH WIND       PRES   REMARKS
JACKSON        CLEAR     79  67  66 CALM      29.99S
LONDON         CLEAR     81  64  56 CALM      29.98S
SOMERSET       CLEAR     81  64  57 CALM      29.97F
MIDDLESBORO    CLEAR     77  69  75 NW3       29.99R
MONTICELLO     CLEAR     79  71  76 CALM      30.00R
$$




USA.gov is the U.S. government's official web portal to all federal, state and local government web resources and services.